Location: Unspecified
(38.7273°N, 77.0677°W)
Time: 07:03:13
(UTC-04:00)

CAS-4B - Pass Details

Date: 25 September 2021
Orbit: 529 x 541 km, 43.0° (Epoch: 20 October)

Event Time Altitude Azimuth Distance (km) Brightness Sun altitude
Exits shadow 04:32:08 33° 61° (ENE) 904 ? -28.7°
Drops below altitude 10° 04:34:27 10° 67° (ENE) 1,770 ? -28.3°
Sets 04:36:42 0° 69° (ENE) 2,661 ? -27.9°
